Time,TemperatureF,DewpointF,PressureIn,WindDirection,WindDirectionDegrees,WindSpeedMPH,WindSpeedGustMPH,Humidity,HourlyPrecipIn,Conditions,Clouds,dailyrainin,SoftwareType,DateUTC
2013-09-12 00:24:00,71.0,69.0,30.01,North,5,0.0,0.0,92,0.00,,,0.00,,2013-09-12 04:24:00,
2013-09-12 00:54:00,71.0,69.0,29.99,North,5,0.0,0.0,93,0.00,,,0.00,,2013-09-12 04:54:00,
2013-09-12 01:23:00,71.0,69.0,29.97,North,5,0.0,0.0,94,0.00,,,0.00,,2013-09-12 05:23:00,
2013-09-12 01:53:00,71.0,69.0,29.96,North,5,0.0,0.0,95,0.00,,,0.00,,2013-09-12 05:53:00,
2013-09-12 02:22:00,71.0,69.0,29.96,North,5,0.0,1.0,95,0.00,,,0.00,,2013-09-12 06:22:00,
2013-09-12 02:52:00,71.0,69.0,29.95,North,5,0.0,0.0,95,0.00,,,0.00,,2013-09-12 06:52:00,
2013-09-12 03:22:00,71.0,70.0,29.95,North,5,0.0,1.0,96,0.00,,,0.00,,2013-09-12 07:22:00,
2013-09-12 03:52:00,71.0,69.0,29.94,North,5,0.0,3.0,95,0.00,,,0.00,,2013-09-12 07:52:00,
2013-09-12 04:22:00,72.0,70.0,29.93,WNW,288,0.0,1.0,93,0.00,,,0.00,,2013-09-12 08:22:00,
2013-09-12 04:52:00,72.0,70.0,29.93,WNW,282,0.0,3.0,92,0.00,,,0.00,,2013-09-12 08:52:00,
2013-09-12 05:21:00,72.0,70.0,29.93,WNW,283,0.0,1.0,93,0.00,,,0.00,,2013-09-12 09:21:00,
2013-09-12 05:53:00,72.0,70.0,29.93,WNW,283,0.0,1.0,94,0.00,,,0.00,,2013-09-12 09:53:00,
2013-09-12 06:23:00,71.0,69.0,29.92,WNW,283,0.0,0.0,94,0.00,,,0.00,,2013-09-12 10:23:00,
2013-09-12 06:53:00,71.0,69.0,29.92,WNW,283,0.0,4.0,95,0.00,,,0.00,,2013-09-12 10:53:00,
2013-09-12 07:52:00,72.0,70.0,29.93,West,269,0.0,0.0,95,0.00,,,0.00,,2013-09-12 11:52:00,
2013-09-12 08:22:00,73.0,71.0,29.92,West,265,0.0,1.0,94,0.00,,,0.00,,2013-09-12 12:22:00,
2013-09-12 08:52:00,73.0,71.0,29.91,SSW,202,0.0,3.0,92,0.00,,,0.00,,2013-09-12 12:52:00,
2013-09-12 09:22:00,73.0,71.0,29.91,WSW,258,0.0,7.0,93,0.00,,,0.00,,2013-09-12 13:22:00,
2013-09-12 09:52:00,73.0,71.0,29.90,WSW,254,0.0,1.0,93,0.00,,,0.00,,2013-09-12 13:52:00,
2013-09-12 10:22:00,74.0,72.0,29.89,WSW,254,0.0,4.0,92,0.00,,,0.00,,2013-09-12 14:22:00,
2013-09-12 10:52:00,77.0,72.0,29.90,SSE,155,5.0,9.0,84,0.00,,,0.00,,2013-09-12 14:52:00,
2013-09-12 11:22:00,78.0,72.0,29.88,SW,214,1.0,7.0,82,0.00,,,0.00,,2013-09-12 15:22:00,
2013-09-12 11:54:00,75.0,72.0,29.88,West,280,0.0,5.0,90,0.01,,,0.01,,2013-09-12 15:54:00,
2013-09-12 12:23:00,74.0,72.0,29.85,West,279,0.0,1.0,93,0.02,,,0.02,,2013-09-12 16:23:00,
2013-09-12 12:53:00,73.0,71.0,29.85,West,275,0.0,1.0,94,0.01,,,0.02,,2013-09-12 16:53:00,
2013-09-12 13:23:00,73.0,71.0,29.85,West,259,0.0,4.0,95,0.00,,,0.02,,2013-09-12 17:23:00,
2013-09-12 13:54:00,74.0,72.0,29.83,WNW,286,2.0,7.0,93,0.00,,,0.02,,2013-09-12 17:54:00,
2013-09-12 14:22:00,76.0,73.0,29.81,West,259,2.0,9.0,90,0.00,,,0.02,,2013-09-12 18:22:00,
2013-09-12 14:52:00,78.0,74.0,29.80,West,262,3.0,6.0,87,0.01,,,0.03,,2013-09-12 18:52:00,
2013-09-12 15:22:00,79.0,73.0,29.78,WNW,286,3.0,11.0,83,0.01,,,0.03,,2013-09-12 19:22:00,
2013-09-12 15:52:00,79.0,74.0,29.77,WNW,285,3.0,7.0,85,0.00,,,0.03,,2013-09-12 19:52:00,
2013-09-12 16:22:00,78.0,75.0,29.74,WNW,292,0.0,4.0,90,0.06,,,0.09,,2013-09-12 20:22:00,
2013-09-12 16:52:00,79.0,76.0,29.73,West,279,0.0,5.0,90,0.06,,,0.09,,2013-09-12 20:52:00,
2013-09-12 17:22:00,80.0,75.0,29.72,West,261,0.0,6.0,84,0.00,,,0.09,,2013-09-12 21:22:00,
2013-09-12 17:54:00,79.0,74.0,29.70,WNW,282,0.0,3.0,85,0.00,,,0.09,,2013-09-12 21:54:00,
2013-09-12 18:24:00,77.0,74.0,29.70,WNW,282,0.0,1.0,91,0.00,,,0.09,,2013-09-12 22:24:00,
2013-09-12 19:23:00,67.0,65.0,29.73,NNW,331,0.0,5.0,94,0.64,,,0.73,,2013-09-12 23:23:00,
2013-09-12 19:53:00,67.0,66.0,29.70,NNW,327,0.0,3.0,95,0.16,,,0.73,,2013-09-12 23:53:00,
2013-09-12 20:22:00,67.0,66.0,29.71,NNW,327,0.0,1.0,95,0.01,,,0.74,,2013-09-13 00:22:00,
2013-09-12 20:52:00,66.0,65.0,29.73,NNW,327,0.0,0.0,96,0.01,,,0.74,,2013-09-13 00:52:00,
2013-09-12 21:22:00,66.0,65.0,29.74,NNW,327,0.0,0.0,96,0.00,,,0.74,,2013-09-13 01:22:00,
2013-09-12 21:53:00,66.0,65.0,29.73,NNW,327,0.0,0.0,96,0.00,,,0.74,,2013-09-13 01:53:00,
2013-09-12 22:22:00,65.0,64.0,29.73,NNW,327,0.0,0.0,96,0.00,,,0.74,,2013-09-13 02:22:00,
2013-09-12 22:53:00,65.0,64.0,29.73,NNW,327,0.0,0.0,97,0.00,,,0.74,,2013-09-13 02:53:00,
2013-09-12 23:22:00,66.0,65.0,29.72,NNW,327,0.0,0.0,97,0.00,,,0.74,,2013-09-13 03:22:00,
2013-09-12 23:55:00,66.0,65.0,29.72,NNW,327,0.0,1.0,97,0.00,,,0.74,,2013-09-13 03:55:00,